Regional Weather Roundup
Issued by NWS Newport/Morehead, NC

Current Version | Previous Version | Text Only | Print | Product List | Glossary On
Versions: 1 2 3 4 5 6 7 8 9 10 11 12 13 14 15 16 17 18 19 20 21 22 23 24 25 26 27 28 29 30 31 32 33 34 35 36 37 38 39 40 41 42 43 44 45 46 47 48 49 50
513
ASUS42 KMHX 271713
RWRMHX
WEATHER ROUNDUP FOR EASTERN NORTH CAROLINA
NATIONAL WEATHER SERVICE NEWPORT/MOREHEAD CITY NC
1200 PM EST MON FEB 27 2017

NOTE: "FAIR" INDICATES FEW OR NO CLOUDS BELOW 12,000 FEET
WITH NO SIGNIFICANT WEATHER AND/OR OBSTRUCTIONS TO VISIBILITY

NCZ015>017-031-032-045>047-102-103-271800-
NORTH COAST

CITY           SKY/WX    TMP DP  RH WIND       PRES   REMARKS
EDENTON        SUNNY     61  27  27 SE5       30.48S
ELIZABETH CITY CLOUDY    60  26  27 SE7       30.47F
KITTY HAWK     NOT AVBL
MANTEO         SUNNY     59  34  39 E5        30.47F

$$

NCZ045>047-081-094-103-104-271800-
CENTRAL COAST

CITY           SKY/WX    TMP DP  RH WIND       PRES   REMARKS
FRISCO         SUNNY     62  43  49 NE7       30.45F

$$

NCZ095-097-098-100-101-271800-
SOUTHERN COAST

CITY           SKY/WX    TMP DP  RH WIND       PRES   REMARKS
BEAUFORT       SUNNY     67  45  45 SE10      30.43F
CEDAR ISLAND   NOT AVBL
JACKSONVILLE   MOSUNNY   64  38  38 VRB3      30.43F
PINEY ISLAND   SUNNY    N/A N/A N/A NE14      30.44F
WILMINGTON     MOSUNNY   66  43  43 SE9       30.42F


$$

NCZ011>013-027>030-043-044-078>080-089-090>093-098-271800-
COASTAL PLAIN

CITY           SKY/WX    TMP DP  RH WIND       PRES   REMARKS
AHOSKIE          N/A     59  25  27 SE10      30.45F
CLINTON        SUNNY     64  37  37 S5        30.44F
ELIZABETHTOWN  SUNNY     64  41  42 SE6       30.43S
GOLDSBORO      SUNNY     64  25  22 SE8       30.43F
GREENVILLE     SUNNY     63  28  27 S8        30.45F
HAVELOCK       NOT AVBL
KENANSVILLE    SUNNY     63  32  31 SE7       30.44F
KINSTON        SUNNY     64  27  24 CALM      30.45F
NEW BERN       SUNNY     63  37  38 VRB3      30.46F
RICHLANDS      SUNNY     65  38  36 E8G16     30.43F
ROCKY MOUNT    SUNNY     61  26  26 SE7       30.44F
WASHINGTON     SUNNY     62  31  32 CALM      30.46F
WHITEVILLE     CLOUDY    63  40  43 NE3       30.42F

$$

AMZ130-135-150-152-154-156-158-170-250-252-270-ANZ085-086-088-633-658-670-271800-
MARINE OBSERVATIONS

STATION/POSITION TIME  TEMP    WIND        PRES    WAVE   SWELL
                       AIR SEA DIR/SP/G            HT/PER HT/PER
                 (UTC) (F)     (DEG/KT/KT) (MB)    (FT/S) (FT/S)
CHESAPEAKE LIGHT NOT AVBL
64 E VA BEACH    1650   51 49  100/  6/  8 1031.2    3/ 8   2/ 8
DUCK             1636   51 49   40/  2/  3 1031.7
2 E DUCK         1700      51                N/A     2/ 9
OREGON INLET     1648           20/  7/  8   N/A
13E OREGON INLT  NOT AVBL
HATTERAS CG      1636   56 60   10/ 14/ 16 1031.1
DIAMOND BUOY     1650   63 71  130/ 12/ 16 1031.0    4/ 8   3/ 8
CAPE LOOKOUT     1700   63      80/  6/  7 1029.9
BEAUFORT LAB     1636   63 61  110/  8/ 12 1030.0
30 SE NEW RVR IN 1608   65     140/ 10/ 14 1030.2
30 SE NEW RVR IN 1643      65                N/A     3/ 8
27 SE WRIGHTSVLE 1608   65 62  130/ 10/ 16 1029.1
5 SE WRIGHTSVLE  1608   58 58   40/ 12/ 17 1030.2
225 S CAPE HAT   1650   67 70  100/ 14/ 17 1029.2    4/ 8   3/ 8
41 SE CHARLESTON 1650   69 69  140/ 14/ 16 1027.8    4/ 9   2/ 9

$$




USA.gov is the U.S. government's official web portal to all federal, state and local government web resources and services.